Tracking 31027 objects as of 19-Jul-2025
HD Live streaming from Space Station
objects crossing your sky now

DMSP 5D-2 F13 DEB

Track DMSP 5D-2 F13 DEB now!
10-day predictions


NORAD ID: 40447
Int'l Code: 1995-015AZ
Perigee: 792.0 km
Apogee: 807.8 km
Inclination: 98.7 °
Period: 100.7 minutes
Semi major axis: 7170 km
RCS: Unknown
Launch date: March 24, 1995
Source: United States (US)
Launch site: AIR FORCE WESTERN TEST RANGE (AFWTR)

Note: This is SATELLITE DEBRIS
Your satellite tracking list
Your tracking list is empty




NASA's NSSDC Master Catalog

Two Line Element Set (TLE):
1 40447U 95015AZ  25199.48953737  .00001399  00000-0  56244-3 0  9997
2 40447  98.6665 222.8848 0011056 217.1416 142.9002 14.29688204538558
Source of the keplerian elements: AFSPC